Dewpoint
50 50 50 50 50 50 51 51 51 51 51 52 51 51 52 52 52 53 53 53 53 53 54 54 53 52 46 32 37 44 46 43 41 37 36 33 28 25 22 23 25 27 27 29 29 29 27
50 50 49 50 50 50 50 50 50 51 51 51 51 51 51 52 52 53 53 53 53 53 53 52 51 50 34 11 42 44 42 40 40 38 36 35 32 30 25 25 21 28 28 27 26 26 27
49 49 49 49 49 49 49 49 50 50 51 51 51 50 51 51 52 52 53 53 53 52 51 51 50 44 30 32 41 44 41 39 40 40 36 38 36 28 29 25 30 28 16 18 26 28 24
49 49 49 49 49 49 49 49 50 50 50 50 50 50 50 51 52 52 53 53 53 50 50 50 50 32 26 37 43 39 39 38 38 40 39 39 38 32 27 28 19 21 18 6 19 27 29
49 48 48 48 48 49 48 49 49 50 50 50 50 49 50 51 51 52 53 53 50 48 48 49 35 32 28 38 35 38 38 36 36 37 39 38 34 31 26 14 4 12 0 12 16 29 28
48 47 48 48 48 48 48 48 49 49 49 49 49 49 50 51 51 52 51 50 45 37 40 40 32 20 29 32 34 37 38 38 35 33 33 33 30 19 23 9 -6 4 13 16 15 19 26
49 47 47 47 47 48 48 48 48 49 49 49 49 49 50 50 51 49 38 27 15 21 32 28 29 26 29 31 36 33 37 35 34 28 22 28 19 10 15 19 16 20 20 19 19 18 17
49 47 46 47 47 47 47 47 48 48 48 48 48 48 50 50 51 45 40 30 39 38 23 32 32 30 31 33 29 31 35 28 27 24 25 19 12 19 24 23 20 18 15 13 15 18 19
50 48 46 46 46 46 47 47 47 47 48 48 47 48 50 50 47 39 40 41 45 45 22 28 31 30 30 32 28 30 33 31 25 23 23 17 20 23 21 19 16 15 13 11 9 18 15
51 48 47 46 46 46 46 46 46 47 47 47 47 48 49 45 29 39 30 42 45 44 5 19 27 31 28 31 29 35 35 28 26 19 23 18 20 22 19 16 18 9 17 18 17 15 4
51 49 47 46 45 45 45 46 46 46 46 46 46 47 49 42 32 21 34 44 45 27 -3 23 28 32 28 27 30 31 27 28 20 23 16 3 20 20 17 16 20 11 21 20 18 16 14
52 50 48 46 45 44 45 45 45 45 45 45 45 47 47 29 36 39 44 45 37 8 -2 17 24 21 18 20 24 29 22 21 21 20 20 19 23 23 19 23 22 21 19 17 18 16 10
53 51 49 47 45 44 44 45 44 44 44 44 45 46 43 31 20 39 44 31 4 2 12 14 17 20 17 15 17 20 17 14 9 -2 -2 7 13 24 24 21 21 19 11 -5 -9 6 -3
54 52 50 48 45 43 44 44 43 44 43 44 45 44 40 32 41 44 30 9 -0 7 9 22 20 20 16 14 14 17 19 15 19 16 10 1 -2 19 17 21 16 16 12 -7 -17 -13 -6
54 53 51 48 46 43 43 43 43 43 43 44 42 41 36 30 42 36 15 -2 4 4 18 20 19 13 9 15 14 12 13 16 18 18 3 5 1 15 11 12 15 12 14 16 12 13 8
55 53 51 49 47 44 43 42 42 42 42 44 30 31 32 35 37 25 8 1 7 26 24 19 2 11 6 11 9 11 9 17 17 17 17 13 -1 10 13 9 5 12 12 7 11 -6 -7
55 54 52 49 47 44 43 41 41 41 42 43 31 8 29 37 30 16 -2 0 22 25 26 19 12 10 10 11 14 10 8 15 17 15 15 13 9 2 8 6 6 3 7 7 8 10 -2
56 54 52 50 47 44 42 41 41 40 41 33 22 -7 29 33 7 20 2 22 25 22 24 25 24 21 15 17 15 14 11 13 16 15 12 12 10 4 4 0 -0 0 -2 5 5 2 4
56 55 53 51 48 44 41 40 40 40 40 27 5 13 28 24 3 6 22 21 22 22 20 21 21 20 21 19 13 16 18 16 12 11 11 10 6 -4 -5 -2 2 -3 -2 -0 2 1 -4
56 55 53 51 48 44 41 40 39 40 41 27 18 2 19 19 16 9 16 17 18 18 17 18 19 17 17 17 16 12 17 15 10 10 13 5 0 -5 1 -3 1 -3 -1 -2 -0 -2 -5
56 55 53 51 47 45 42 40 39 39 40 25 15 2 16 8 7 17 19 17 15 13 16 15 13 16 13 9 14 13 19 17 11 13 10 -0 -3 -5 -2 -0 1 -0 -2 -1 -2 -2 -3
55 55 53 50 48 45 41 40 39 38 39 22 4 6 18 16 14 15 19 16 15 14 12 10 11 10 12 6 6 4 16 16 13 14 8 7 -2 4 0 1 3 3 2 3 2 3 4
51 54 52 50 47 44 42 40 39 39 33 22 25 21 12 15 12 10 9 11 17 14 10 11 11 6 5 7 8 9 9 9 6 10 8 5 1 3 -8 5 5 -4 6 11 11 10 9
49 54 52 50 47 45 44 44 42 37 37 28 25 23 10 -4 9 9 9 13 15 12 8 13 10 5 14 16 13 10 10 9 11 13 9 5 4 6 3 5 -11 4 9 7 8 7 7
49 54 51 49 47 46 46 43 41 37 38 28 27 19 8 -1 10 12 13 14 14 16 15 14 15 17 17 7 -3 -5 -3 3 8 9 9 8 7 4 -0 4 0 8 9 6 5 4 7
48 52 51 49 47 47 45 41 39 37 38 31 32 27 17 7 11 21 13 13 11 12 13 14 17 19 14 6 -3 -18 -21 -5 0 9 12 11 10 2 6 2 -4 -1 8 7 6 4 5
49 52 51 48 47 45 41 38 37 37 37 32 32 29 23 19 21 23 13 11 13 13 12 14 12 11 13 3 -4 -4 -5 2 -7 2 9 10 10 6 6 5 6 11 9 7 4 -1 5
51 51 49 48 46 43 41 36 37 38 36 31 29 31 22 22 18 21 23 17 14 15 8 14 9 12 11 0 3 6 3 5 5 7 7 8 9 8 8 6 3 6 4 5 4 6 6
51 49 48 46 43 41 39 38 37 37 33 30 25 27 26 20 16 18 17 17 20 24 18 18 13 18 17 11 13 11 8 6 4 2 9 6 6 7 6 5 6 7 7 6 7 6 6
Wind_Speed
5 5 6 7 7 8 9 10 11 12 12 12 13 13 13 13 13 13 13 13 12 10 9 9 9 8 1 4 2 6 13 11 5 4 7 4 4 2 3 2 2 2 1 2 1 4 0
4 4 5 6 8 9 10 11 12 13 13 14 14 14 14 14 14 13 13 12 9 7 8 8 8 6 2 1 4 8 10 6 10 6 5 6 3 2 4 2 3 2 3 6 4 4 1
3 3 5 6 8 10 11 12 12 13 14 14 15 15 14 14 14 13 13 11 10 7 5 6 7 2 6 2 4 9 8 4 5 5 3 4 2 4 2 2 3 1 2 2 6 3 2
1 2 4 6 8 9 11 11 12 13 14 14 15 16 15 15 14 13 13 11 7 5 5 6 6 3 4 4 4 7 8 4 8 5 4 3 3 5 4 2 6 4 4 2 5 3 2
1 1 3 6 8 10 11 11 11 12 13 14 15 15 16 16 16 16 14 7 2 3 4 4 2 2 2 6 4 5 5 4 4 3 4 2 4 4 3 4 1 6 2 3 3 2 2
2 2 4 6 7 9 10 11 12 13 14 14 15 15 15 16 16 16 11 1 2 1 2 1 3 2 5 3 3 4 4 4 4 3 3 6 6 3 3 3 4 1 0 1 2 3 2
3 2 3 6 8 10 11 12 13 14 15 16 16 17 17 17 16 13 3 2 2 2 10 5 2 2 1 4 2 6 4 3 2 6 1 3 1 2 1 3 4 3 1 4 4 3 2
7 4 3 4 6 9 11 13 14 15 16 17 18 18 18 18 15 7 5 6 3 2 3 2 1 2 0 1 3 10 6 2 3 3 1 3 1 2 4 6 4 2 3 6 5 3 2
10 7 4 4 5 7 9 11 13 15 16 18 19 19 19 20 6 6 8 5 1 1 3 2 2 2 2 3 3 6 5 1 4 2 3 2 3 0 2 2 3 4 6 4 5 3 1
11 8 6 4 4 7 9 11 13 14 15 17 19 19 20 22 2 2 3 1 1 0 2 2 2 2 1 1 2 2 3 2 3 1 1 3 1 2 2 2 4 4 4 4 4 2 7
13 10 8 5 3 6 8 10 12 14 15 17 18 19 19 13 3 3 1 2 1 1 5 1 2 2 2 1 1 2 4 3 2 1 1 2 2 1 3 4 6 3 4 5 4 7 2
14 12 10 7 4 4 7 9 11 13 14 15 16 16 17 5 4 3 4 2 1 3 5 1 1 2 2 3 2 3 5 8 2 1 1 5 2 1 2 2 1 1 1 3 3 3 10
16 14 11 9 6 4 5 8 10 12 13 14 14 12 5 2 3 6 4 3 3 4 1 3 2 0 0 2 1 4 4 4 1 3 2 3 2 1 1 2 1 2 2 6 5 4 9
18 15 13 11 8 5 4 6 9 11 13 14 13 4 5 4 4 4 3 3 5 2 5 2 3 2 3 2 1 2 2 2 2 1 1 3 5 1 4 1 1 1 3 5 8 9 7
21 18 16 13 10 6 3 5 7 10 12 13 5 3 3 7 5 3 4 2 5 3 1 5 2 2 2 2 1 0 1 2 0 2 4 3 4 1 4 1 1 2 5 1 4 1 10
23 20 18 15 11 7 4 4 5 8 10 9 2 2 3 8 4 4 3 5 2 2 2 1 4 4 4 2 2 1 2 2 1 1 2 1 7 2 3 1 6 3 4 2 1 7 14
23 21 19 16 12 8 6 4 5 6 8 2 3 1 2 5 2 5 4 5 2 1 2 1 1 2 3 2 5 4 3 1 2 3 1 2 2 2 1 1 2 2 3 1 2 5 9
25 24 20 18 14 10 6 4 4 6 6 3 2 3 3 3 3 1 4 3 1 2 1 1 2 4 5 5 5 6 5 3 1 4 3 1 2 7 4 0 1 1 2 3 8 5 2
26 26 23 19 16 11 7 4 3 4 2 3 0 1 3 1 5 6 2 3 2 3 3 4 5 3 2 6 5 5 4 1 2 4 5 5 2 7 5 1 1 2 2 2 4 3 12
26 26 24 21 17 13 7 3 2 2 3 4 1 3 2 4 1 3 4 4 4 1 2 1 3 3 3 5 3 3 6 2 1 1 4 1 4 9 20 7 2 3 4 5 5 7 14
25 27 27 24 21 15 12 6 1 2 5 2 2 3 1 3 5 5 5 3 4 5 2 3 2 6 6 5 3 5 3 3 1 0 2 2 6 4 6 5 5 8 11 13 18 17 16
16 26 27 28 23 19 14 9 4 0 8 2 2 2 2 2 2 7 6 6 9 3 4 4 6 3 6 5 3 3 6 5 4 3 3 1 2 2 5 6 6 10 12 15 16 12 11
21 27 28 28 27 22 18 12 8 4 4 4 2 1 1 0 3 5 4 3 5 8 1 3 2 4 5 4 4 5 4 4 5 8 10 6 5 1 6 3 7 14 3 2 1 1 1
23 26 28 28 27 24 19 15 13 11 7 4 4 4 5 7 6 6 4 3 4 4 3 2 4 0 2 5 6 5 5 3 4 3 5 8 7 4 5 4 7 1 1 2 1 4 3
17 23 28 28 27 24 20 17 16 15 16 3 4 5 4 3 3 4 6 5 8 6 4 3 3 1 3 3 1 2 2 1 0 0 3 2 6 2 4 4 8 2 1 0 2 3 3
20 22 28 28 26 24 19 15 14 14 16 6 3 4 5 6 3 3 3 3 4 3 3 2 2 1 1 1 2 4 5 1 1 1 6 4 2 7 3 4 6 1 3 3 4 10 2
26 25 28 25 23 22 19 13 14 12 16 6 4 2 7 8 3 3 1 2 4 4 5 3 2 1 3 3 3 4 3 1 3 3 4 3 2 13 14 7 7 3 1 3 2 4 4
16 26 25 22 19 18 17 13 13 17 14 4 6 3 6 7 5 3 2 2 2 3 6 5 4 1 2 5 4 3 3 2 2 1 2 5 4 5 3 5 9 1 1 4 1 1 5
20 24 26 26 23 18 15 13 13 19 14 8 6 7 10 11 6 4 12 9 0 1 6 3 1 2 3 4 2 3 2 2 3 4 1 4 3 2 6 3 1 1 1 2 2 4 6
Wind_Direction
47 30 23 18 11 7 4 3 360 0 359 355 354 351 351 348 344 339 335 332 332 328 327 333 336 340 349 55 45 340 340 340 359 22 42 29 46 86 112 83 66 70 58 356 353 307 267
53 30 18 9 4 4 3 2 359 358 355 353 352 350 349 346 340 336 332 333 335 338 334 331 335 337 54 124 325 334 341 8 21 36 36 40 91 90 90 58 64 17 345 319 340 335 143
50 22 12 8 5 2 1 2 360 355 353 352 349 348 346 342 338 334 332 332 332 336 342 336 339 13 70 102 340 335 359 5 15 26 57 39 52 69 57 75 348 77 338 26 23 343 151
71 13 5 2 360 360 1 360 356 355 352 351 348 346 343 338 335 330 327 324 319 322 334 338 340 25 75 314 332 24 360 27 15 30 62 50 24 94 71 123 20 13 38 125 353 83 49
199 342 354 355 354 356 356 352 351 349 350 349 347 344 341 338 335 329 324 313 294 303 297 313 40 65 72 325 39 337 29 12 348 21 31 70 65 74 55 92 6 28 317 359 326 13 341
215 312 341 345 349 348 349 349 347 346 347 347 346 342 339 338 336 333 333 249 339 41 343 355 67 56 21 356 330 337 354 31 38 7 32 37 46 75 55 114 236 220 178 158 247 326 17
221 264 316 335 342 345 346 347 346 345 346 346 346 342 339 338 337 342 15 58 7 7 38 63 32 101 324 305 339 14 358 8 35 56 104 37 60 271 307 156 128 130 250 267 263 299 319
211 227 275 317 335 343 346 346 345 346 347 347 346 342 338 335 333 358 60 74 109 174 76 33 55 66 326 334 41 7 3 69 56 96 58 36 115 139 123 136 134 157 242 255 270 267 192
208 210 232 285 322 340 344 346 347 346 349 348 347 344 340 337 334 33 69 99 315 198 92 17 23 31 335 23 69 349 16 33 73 101 75 164 156 104 146 168 219 231 227 240 255 299 10
210 212 223 256 311 334 343 345 345 345 348 350 347 345 345 339 48 12 54 345 13 346 70 341 340 357 334 111 64 337 11 77 49 162 283 252 329 170 151 215 167 261 201 187 209 227 251
209 212 218 233 286 325 338 344 344 345 348 350 350 348 346 17 117 48 17 343 81 89 314 60 320 308 345 68 71 17 28 26 145 180 138 263 175 180 205 220 177 215 176 232 237 238 289
216 214 216 222 250 308 329 339 341 341 347 349 349 351 344 9 37 11 348 360 13 27 263 238 322 331 350 17 16 351 28 40 65 112 345 257 285 232 191 126 205 166 245 53 68 141 256
212 215 221 218 226 269 317 332 337 339 345 347 345 348 39 358 10 348 355 346 328 200 107 201 229 49 237 262 351 33 12 4 280 304 307 307 193 67 85 194 144 144 86 305 278 222 253
205 213 214 226 221 231 294 324 331 338 343 343 340 12 34 54 355 10 35 4 254 260 203 159 144 145 234 182 317 5 1 298 14 100 184 263 272 114 0 87 176 123 177 219 275 276 277
203 204 212 217 229 232 264 316 330 338 344 345 342 26 63 3 4 41 67 257 256 239 116 164 101 195 241 225 246 120 238 267 311 326 228 199 261 328 63 8 84 151 208 77 281 194 288
202 200 204 209 217 234 250 297 321 338 346 357 71 59 42 333 5 64 112 243 271 28 45 33 240 204 237 203 216 219 235 137 199 348 356 289 294 8 315 16 43 203 135 175 191 265 267
199 200 200 204 206 216 244 279 316 336 343 7 72 10 305 340 64 66 224 239 272 31 32 244 268 266 228 232 198 214 229 196 169 155 103 152 203 266 292 329 199 127 201 169 234 203 253
200 197 197 198 201 205 223 267 310 330 351 57 94 244 328 322 128 111 205 211 358 188 44 239 173 201 201 185 204 223 230 214 194 168 177 177 160 257 246 73 348 336 261 197 223 241 232
202 196 195 193 193 197 207 235 294 331 42 111 28 293 334 48 222 216 233 228 206 192 209 192 198 202 181 202 219 204 194 189 185 183 178 182 214 300 280 101 56 205 186 148 113 106 235
205 195 187 183 187 187 188 224 272 307 186 106 113 281 343 63 40 161 182 235 224 178 211 204 187 149 162 216 218 217 196 173 34 130 95 159 196 229 256 273 115 222 213 207 193 241 259
211 196 182 178 180 180 168 191 251 289 178 121 86 246 222 234 229 186 181 177 206 230 214 200 241 219 188 218 211 222 151 159 30 172 84 176 246 254 273 278 259 249 248 236 235 243 255
255 195 183 176 174 177 168 155 87 304 134 89 180 208 54 155 136 166 186 219 220 215 170 227 228 205 204 218 212 214 170 193 200 153 164 18 283 19 282 286 298 277 254 244 251 261 263
323 195 185 179 172 174 173 163 160 163 91 117 129 52 299 287 164 171 219 216 212 156 146 51 217 159 194 203 124 124 113 110 174 174 179 174 186 56 273 333 322 285 245 182 187 172 222
329 197 184 181 174 170 179 177 179 182 185 125 148 138 197 240 209 215 182 145 167 174 160 42 42 91 104 100 99 76 65 88 148 128 143 158 155 176 278 342 271 300 117 99 270 259 217
313 209 186 183 177 173 176 179 190 188 187 159 136 160 155 218 197 182 151 132 106 80 95 113 52 129 140 120 70 317 314 258 290 311 196 116 155 224 262 226 304 250 323 313 36 288 178
301 220 191 185 180 168 169 180 199 191 179 137 131 145 112 137 197 333 137 161 153 127 103 76 56 83 88 128 164 237 249 262 226 94 51 117 92 183 152 246 273 202 138 103 125 281 161
298 211 185 182 174 162 159 162 171 180 162 133 119 120 107 115 47 17 22 169 119 116 118 131 186 132 40 141 197 226 254 305 245 204 184 147 187 219 227 247 273 163 137 149 281 299 297
267 178 168 166 161 162 149 153 160 150 153 103 84 350 110 101 51 80 63 94 108 138 152 147 131 219 124 176 189 200 201 198 243 230 201 198 201 204 176 228 269 61 198 219 236 279 306
171 165 162 155 149 154 155 158 165 153 144 108 95 77 66 82 123 114 96 72 338 1 128 98 145 123 140 112 163 125 181 172 173 231 129 226 215 215 212 239 183 325 176 99 96 325 324